Погода в Оренбурге

Погода в Оренбурге : погода сейчас, прогноз погоды и архив. Всё, что Вы хотите узнать о погоде в Оренбурге!

Хотите узнать прогноз погоды в Оренбурге? Тогда Вам сюда: Погода в Оренбурге

Поиск расширенной информации на нашем сайте:

Другие новости

Новости СМИ2

Главная страница сайта

Новости сайта

03.07.2017

Напоминаем, что на нашем специализированном сайте Метеоцентр.Азия вы можете получить высокодетализированные автоматические прогнозы погоды по пунктам России, СНГ и мира в авиационном формате (включающие направление и скорость ветра, видимость, явления погоды, количество и форму облачности, нижнюю и верхнюю границу облачности).


Погода в Оренбурге - сегодня

Время (UTC), дата Ветер
(°,м/с) 
Видим.   Явления Облачность Т
(°С)
Тd
(°С)
f(%) Тe
(°С)
Pmin
(гПа)
dP
(гПа)
Po
(мм)
O2
(г/м3)
Тmin Tmax R s Состояние
почвы
18 20.09.18 270 (З) 20000 м    8/8 600 м кучево-дожд. 
[Cb cap]
+10.4 +5 69 +10  1010.1  0.3  747  289           
21 20.09.18 240 (ЮЗ) 20000 м    3/3 1000 м 
[Sc]
+6 +2.8 80 +5  1010.3  0.1  747  294           
00 21.09.18 250 (З) 20000 м    4/4 600 м 
[Sc]
+5 +2.6 84 +5  1010.8  0.5  747  295           
03 21.09.18 260 (З) 20000 м    8/3 1000 м средняя 
[Sc|Ac lent]
+7 +4 81 +6  1012  1.2  748  293  +4.4        влажная 
06 21.09.18 320 (СЗ) 20000 м    3/0 средняя 
[Ac trans]
+14.4 +4.5 51 +14  1012.2  0.6  749  286           
09 21.09.18 340 (С) 20000 м    3/1 1000 м средняя 
[Cu hum|Ac trans]
+17.3 +4.3 42 +18  1011.9  -0.2  749  283           
12 21.09.18 320 (СЗ) 20000 м    3/3 1000 м 
[Cu hum]
+18.4 +5 41 +19  1012.6  0.8  749  282           
18 21.09.18 250 (З) 20000 м    ясно 
+11.1 +6.2 72 +11  1016.1  1.1  751  290           
21 21.09.18 280 (З) 20000 м    ясно 
+7.4 +4.8 84 +7  1017.4  1.1  752  294           
00 22.09.18 290 (З) 20000 м    3/0 средняя 
[Ac trans]
+5.6 +3.8 88 +5  1019  1.4  753  297           
03 22.09.18 270 (З) 20000 м    1/0 верхняя 
[Ci fib]
+4.4 +3.4 93 +5  1020.9  1.9  755  299  +3.9        сухая 
06 22.09.18 320 (СЗ) 20000 м    6/0 верхняя 
[Ci fib]
+14 +7.4 64 +14  1021.5  756  288           
09 22.09.18 310 (СЗ) 20000 м    8/0 верхняя 
[Ci fib]
+18.7 +5.5 42 +19  1020.6  -0.7  755  284           
12 22.09.18 320 (СЗ) 20000 м    8/0 средняя, верхняя 
[Ac trans|Ci fib]
+20.7 +2 29 +21  1020  -0.5  755  282           
18 22.09.18 250 (З) 20000 м    1/0 верхняя 
[Ci fib]
+13.4 +4.6 55 +14  1021  0.4  755  289           
21 22.09.18 220 (ЮЗ) 20000 м    3/0 средняя, верхняя 
[Ac trans|Ci fib]
+10.6 +5.2 69 +12  1021.3  0.2  755  292           
00 23.09.18 220 (ЮЗ) 20000 м    9/5 1000 м средняя 
[Sc|Ac trans]
+10.9 +6.7 75 +11  1021.4  0.1  755  292           
03 23.09.18 230 (ЮЗ) 20000 м  {дождь}  10/10 1200 м 
[Sc]
+11.7 +9.4 86 +11  1021.2  -0.1  755  290  +9.2      влажная 
06 23.09.18 260 (З) 20000 м  {дождь}  8/6 1000 м средняя 
[Sc|Ac trans]
+15.7 +10.5 71 +18  1021.1  0.1  755  286           
09 23.09.18 360 (С) 20000 м    3/3 600 м кучево-дожд. 
[Cb calv]
+22.3 +14.1 60 +29  1019.7  -1.1  755  278           
12 23.09.18 250 (З) 20000 м    8/8 600 м кучево-дожд. 
[Cb calv]
+23.1 +13.7 55 +29  1018.9  -0.7  754  277           
18 23.09.18 150 (ЮВ) 20000 м    3/0 средняя 
[Ac trans]
+17.3 +12.6 74 +23  1018.7  -0.3  754  283           
21 23.09.18 090 (В) 20000 м    4/4 1000 м 
[Sc diur, vesp]
+14.6 +12.2 86 +20  1018.3  -0.5  753  286           
00 24.09.18 090 (В) 20000 м    6/6 1000 м 
[Sc diur, vesp]
+11.8 +10.2 90 +13  1018.3  0.1  753  289           
03 24.09.18 080 (В) 20000 м    8/8 600 м кучево-дожд. 
[Cb calv]
+10.9 +9.5 91 +11  1018.3  0.1  753  290  +10.7        сухая 
Время (UTC), дата Ветер
(°,м/с) 
Видим.   Явления Облачность Т
(°С)
Тd
(°С)
f(%) Тe
(°С)
Pmin
(гПа)
dP
(гПа)
Po
(мм)
O2
(г/м3)
Тmin Tmax R s Состояние
почвы

Для получения пояснительной информации подведите курсор к названию столбца.

ПОГОДА в Оренбурге - архив

Всё, что Вы хотите узнать о погоде в Оренбурге - удобно и подробно!

Выберите нужную дату (начиная с 1 января 2015* года) и нажмите кнопку "Найти".
Будут отображены архивные сводки погоды по пункту Оренбург, начиная с указанной даты.


Отображать данные в формате CSV (для использования в таблицах Excel)


Внимание! Наш архив погоды предназначен исключительно для личного некоммерческого использования в познавательных целях. Если Вам необходимы официальные справки о состоянии погоды (для производственных, юридических, коммерческих и т.п. целей), обращайтесь в органы Росгидромета.

*Примечание: данная дата относится к архиву по метеостанциям СССР (Россия, СНГ, Балтия).
Архив по метеостанциям Зарубежной Европы и Азии (кроме Китая) хранится 10 дней, по другим регионам земного шара (Китай, Африка, Америка, Австралия, Океания) - 1 день.

Оренбург - район местоположения метеостанции


Название, широта, долгота, высота метеостанции:
Оренбург (город) 51.7°ш. 55.1°д. 117 м над ур. моря [Российская Федерация]

Дополнительная информация

В oтличие oт бoльшинства пoгoдных сайтoв мы публикуем пoдрoбную метеoинфoрмацию в детальнoм прoфессиoнальнoм фoрмате.

Характеристики температуры и влажнoсти вoздуха измеряются на высoте 2 м в тени вдали oт зданий и деревьев.
Скoрoсть ветра измеряется на высoте 10 м (на урoвне рoста челoвека скoрoсть ветра ниже в 1.5-2 раза). Если метеoстанция нахoдится в гoрoде или в лесу, тo скoрoсть ветра занижена на 2-4 м/с пo сравнению с oткрытым местoм. Скoрoсть ветра над акватoриями крупных рек и oзёр, а также на вершинах хoлмoв на 2-5 м/с выше, чем в oбычных услoвиях.
Атмoсфернoе давление в разных тoчках местнoсти мoжет значительнo oтличаться oт давления на метеoстанции, в зависимoсти oт услoвий рельефа (при пoдъёме на 10 м давление пoнижается примернo на 1 мм рт.ст.).